Regional Weather Roundup
Issued by NWS Sterling, VA

Home | Current Version | Previous Version | Text Only | Print | Product List | Glossary Off
Versions: 1 2 3 4 5 6 7 8 9 10 11 12 13 14 15 16 17 18 19 20 21 22 23 24 25 26 27 28 29 30 31 32 33 34 35 36 37 38 39 40 41 42 43 44 45 46 47 48 49 50

487
ASUS41 KLWX 062010
RWRLWX

REGIONAL WEATHER ROUNDUP
NATIONAL WEATHER SERVICE BALTIMORE MD/WASHINGTON DC
300 PM EST SAT FEB 06 2016

Note: "FAIR" indicates few or no clouds below 12,000 feet
with no significant weather and/or obstructions to visibility.
 TC=TEMPERATURE CELSIUS

 * =Non NWS site. Station does not report precipitation (e.g. rain,
    snow, etc.), thunder, or fog.

DCZ001-MDZ009-015-VAZ040>042-051-053>054-062100-
WASHINGTON METRO

CITY           SKY/WX    TMP DP  RH WIND       PRES   REMARKS
WASHINGTON NAT PTSUNNY   42  20  41 SW10      30.33F
DULLES         PTSUNNY   43  20  39 S9        30.30F
ANDREWS AFB    MOSUNNY   43  21  40 S7        30.31F
FT BELVOIR     FAIR      44  19  36 S8        30.32F
QUANTICO       FAIR      43  29  57 S12       30.33F
COLLEGE PARK*  FAIR      43  19  39 S5        30.32F
LEESBURG*      FAIR      45  25  45 S12       30.30F
MANASSAS*      SUNNY     45  19  36 S6        30.32F
GAITHERSBURG*  MOSUNNY   43  18  36 S6        30.33F

$$

MDZ006>007-011-014-062100-
BALTIMORE METRO

CITY           SKY/WX    TMP DP  RH WIND       PRES   REMARKS
BWI AIRPORT    PTSUNNY   44  18  35 CALM      30.30F
MD SCIENCE CTR   N/A     46  18  32 MISG      30.31F
MARTIN STATE   PTSUNNY   43  28  56 SE12      30.34F
ANNAPOLIS      MOSUNNY   40  27  59 SE13      30.33F
FORT MEADE*    MOSUNNY   43  18  36 SW8       30.33F

$$

MDZ012-015-019>023-062100-
MARYLAND EASTERN SHORE

CITY           SKY/WX    TMP DP  RH WIND       PRES   REMARKS
OCEAN CITY     MOSUNNY   40  27  59 S3        30.35F
SALISBURY      MOSUNNY   44  25  47 CALM      30.34F
BAY BRIDGE AP*   N/A     41  19  42 SE8       30.34F
CAMBRIDGE*     MOSUNNY   41  23  48 SE8       30.34S
EASTON*        PTSUNNY   43  21  42 SW8       30.37F

$$

MDZ017>025-062100-
SOUTHERN MARYLAND

CITY           SKY/WX    TMP DP  RH WIND       PRES   REMARKS
PATUXENT RIVER CLOUDY    40  25  55 SE13      30.34F
ST INIGOES     CLOUDY    43  23  45 VRB6      30.34F
LEONARDTOWN*   CLOUDY    41  16  36 W3        30.34F

$$

MDZ003>005-062100-
NORTH CENTRAL MARYLAND

CITY           SKY/WX    TMP DP  RH WIND       PRES   REMARKS
FREDERICK*     SUNNY     41  25  52 SW12      30.33F
HAGERSTOWN APT SUNNY     42  15  33 S13       30.25F
WESTMINSTER*   MOSUNNY   41  28  60 SW7       30.27F

$$

MDZ501>502-062100-
WESTERN MARYLAND

CITY           SKY/WX    TMP DP  RH WIND       PRES   REMARKS
OAKLAND*       CLOUDY    36  16  44 W10       30.15S WCI  28
CUMBERLAND*    CLOUDY    46  19  34 S8        30.25

$$

VAZ025>031-062100-
SHENANDOAH VALLEY

CITY           SKY/WX    TMP DP  RH WIND       PRES   REMARKS
WINCHESTER*    FAIR      43  19  39 S8        30.25F
FRONT ROYAL*   FAIR      45  18  33 S6        30.25F
LURAY*         FAIR      43  18  36 SE6       30.25F
NEW MARKET*    FAIR      42  16  35 S5        30.24F
STAUNTON*      FAIR      46  17  31 SW10      30.27F
WAYNESBORO*    FAIR      42  12  30 W6        30.25F

$$

WVZ021-048>050-054>055-062100-
EASTERN WEST VIRGINIA PANHANDLE

CITY           SKY/WX    TMP DP  RH WIND       PRES   REMARKS
MARTINSBURG    FAIR      42  18  37 S8        30.26F
PETERSBURG*    FAIR      47  15  27 CALM      30.22F

$$

VAZ036>039-050-062100-
CENTRAL FOOTHILLS

CITY           SKY/WX    TMP DP  RH WIND       PRES   REMARKS
CHARLOTTESVILL FAIR      45  15  30 VRB6      30.28F
CULPEPER*      FAIR      44  19  37 SW5       30.31F
ORANGE*        FAIR      45  18  33 S10       30.31F
GORDONSVILLE*  FAIR      45  19  35 SW8       30.29F
WARRENTON*     FAIR      44  24  44 SW8       30.30F

$$

VAZ055>057-062100-
NORTH AND CENTRAL PIEDMONT

CITY           SKY/WX    TMP DP  RH WIND       PRES   REMARKS
FREDERICKSBRG* FAIR      45  20  37 S5        30.31F
STAFFORD*      FAIR      44  15  31 W6        30.35F

$$

NCZ024-NYZ072-PAZ021-071-VAZ022-071-062100-
OTHER REGIONAL OBSERVATIONS

CITY           SKY/WX    TMP DP  RH WIND       PRES   REMARKS
NEW YORK CITY  PTSUNNY   39  18  42 W9G18     30.32F
PHILADELPHIA   PTSUNNY   42  19  39 S10       30.33F
PITTSBURGH     PTSUNNY   42  15  33 SW8       30.20F
ROANOKE        PTSUNNY   43  15  32 SW5       30.30F
RICHMOND       PTSUNNY   44  19  36 NW8       30.33F
RALEIGH        MOSUNNY   47  17  30 CALM      30.32F

$$

ANZ530>537-062100-
MARINE OBSERVATIONS

STATION/POSITION TIME  TEMP    WIND        PRES
                       AIR SEA DIR/SP/G
                 (UTC) (F)     (DEG/KT/KT) (MB)
THOMAS PT LIGHT  NOT AVBL
BALT KEY BRIDGE  1900   42     240/  7/ 10 1027.3F
COVE POINT       1900   37     180/ 12/ 13 1028.8F
LEWISETTA        1900   38 42  120/ 10/ 10 1028.0F
SOLOMONS ISLAND  1900   39 41  120/  9/ 11   N/A

$$





USA.gov is the U.S. government's official web portal to all federal, state and local government web resources and services.